Change the Weather History Date:

Tuesday, August 6, 2013

  Actual Average Record
Temperature  
Mean Temperature 76 °F -  
Max Temperature 86 °F 89 °F 98 °F (1987)
Min Temperature 68 °F 68 °F 55 °F (2004)
Cooling Degree Days 11    
Growing Degree Days 26 (Base 50)    
Moisture  
Dew Point 66 °F    
Average Humidity 74    
Maximum Humidity 93    
Minimum Humidity 47    
Precipitation  
Precipitation 0.06 in - - ()
Sea Level Pressure  
Sea Level Pressure 30.05 in    
Wind  
Wind Speed 2 mph (South)    
Max Wind Speed 7 mph    
Max Gust Speed -    
Visibility 10 miles    
Events Rain    
Averages and records for this station are not official NWS values.
T = Trace of Precipitation, MM = Missing Value Source: NWS Daily Summary

Daily Weather History Graph

Daily Weather History Graph

Search for Another Location

Airport or City:

Trip Planner

Search our weather history database for the weather conditions in past years. The results will help you decide how hot, cold, wet, or windy it might be!

Date:

Astronomy

Aug. 06, 2013 Rise Set
Actual Time 6:23 AM EDT 8:10 PM EDT
Civil Twilight 5:55 AM EDT 8:38 PM EDT
Nautical Twilight 5:21 AM EDT 9:12 PM EDT
Astronomical Twilight 4:46 AM EDT 9:47 PM EDT
Moon 6:10 AM EDT (8/6) 7:47 PM EDT (8/6)
Length of Visible Light 14h 43m
Length of Day
13h 47m
Waning Crescent, 0% of the Moon is Illuminated
Aug 6
Waning Crescent
Aug 6
New
Aug 14
First Quarter
Aug 20
Full
Aug 28
Last Quarter

Hourly Weather History & Observations

Time (EDT) Temp. Heat Index Dew Point Humidity Pressure Visibility Wind Dir Wind Speed Gust Speed Precip Events Conditions
12:53 AM 72.0 °F - 63.0 °F 73% 30.05 in 10.0 mi South 3.5 mph - N/A   Scattered Clouds
1:53 AM 71.1 °F - 63.0 °F 75% 30.04 in 10.0 mi South 3.5 mph - N/A   Mostly Cloudy
2:53 AM 71.1 °F - 63.0 °F 75% 30.03 in 10.0 mi SSE 3.5 mph - N/A   Overcast
3:53 AM 69.1 °F - 64.9 °F 87% 30.02 in 10.0 mi Calm Calm - N/A   Overcast
4:53 AM 70.0 °F - 64.0 °F 81% 30.01 in 10.0 mi Calm Calm - N/A   Mostly Cloudy
5:53 AM 69.1 °F - 64.9 °F 87% 30.03 in 10.0 mi Calm Calm - N/A   Overcast
6:53 AM 69.1 °F - 64.9 °F 87% 30.06 in 6.0 mi Calm Calm - 0.04 in Rain Light Rain
7:53 AM 68.0 °F - 66.0 °F 93% 30.05 in 6.0 mi Calm Calm - 0.01 in   Mostly Cloudy
8:53 AM 71.1 °F - 66.9 °F 87% 30.06 in 9.0 mi Calm Calm - 0.00 in   Mostly Cloudy
9:53 AM 73.9 °F - 64.9 °F 73% 30.07 in 10.0 mi Calm Calm - N/A   Mostly Cloudy
10:53 AM 77.0 °F - 66.9 °F 71% 30.06 in 10.0 mi South 5.8 mph - N/A   Mostly Cloudy
11:53 AM 79.0 °F - 64.9 °F 62% 30.08 in 10.0 mi SSW 3.5 mph - N/A   Overcast
12:53 PM 81.0 °F 83.0 °F 66.0 °F 60% 30.07 in 10.0 mi SSE 4.6 mph - 0.01 in   Scattered Clouds
1:53 PM 82.9 °F 83.3 °F 61.0 °F 47% 30.07 in 10.0 mi SW 6.9 mph - N/A   Overcast
2:53 PM 84.0 °F 85.8 °F 64.9 °F 53% 30.04 in 10.0 mi South 6.9 mph - N/A   Mostly Cloudy
3:53 PM 82.9 °F 85.0 °F 66.0 °F 56% 30.04 in 10.0 mi Calm Calm - N/A   Mostly Cloudy
4:53 PM 82.9 °F 85.0 °F 66.0 °F 56% 30.04 in 10.0 mi South 4.6 mph - N/A   Overcast
5:53 PM 82.9 °F 85.0 °F 66.0 °F 56% 30.04 in 10.0 mi South 3.5 mph - N/A   Mostly Cloudy
6:53 PM 82.0 °F 84.5 °F 66.9 °F 60% 30.04 in 10.0 mi South 3.5 mph - N/A   Mostly Cloudy
7:53 PM 75.0 °F - 69.1 °F 82% 30.04 in 10.0 mi Calm Calm - N/A   Mostly Cloudy
8:53 PM 73.0 °F - 69.1 °F 87% 30.06 in 9.0 mi Calm Calm - N/A   Mostly Cloudy
9:53 PM 71.1 °F - 68.0 °F 90% 30.06 in 8.0 mi Calm Calm - N/A   Clear
10:53 PM 71.1 °F - 66.9 °F 87% 30.07 in 10.0 mi Calm Calm - N/A   Clear
11:53 PM 69.1 °F - 66.0 °F 90% 30.07 in 10.0 mi Calm Calm - N/A   Clear